Temperature
21 22 22 23 26 27 28 29 29 29 29 28 27 27 28 28 28 26 22 21 21 20 20 21 20 20 20 20 20 20 20 20 20 20 20 20 20 20 20 19 19 19 19 19 19 19 19 19 19
21 21 22 25 26 27 28 29 29 29 28 27 27 26 27 27 25 24 21 21 21 20 21 20 20 20 20 20 20 20 20 20 20 20 20 20 20 20 20 19 19 19 19 19 19 19 19 19 19
21 21 24 26 26 27 28 29 28 28 27 27 27 27 27 26 24 23 21 21 20 20 20 21 21 20 20 20 20 20 20 20 20 20 20 20 20 20 19 19 19 19 19 19 19 19 19 18 18
21 23 25 26 26 28 28 29 28 28 27 27 27 27 26 24 23 22 22 21 20 20 20 21 21 20 20 20 20 20 20 20 20 20 20 20 20 19 19 19 19 19 19 19 19 18 18 18 18
22 25 26 26 26 28 28 27 27 28 28 27 27 27 27 23 22 22 21 21 20 20 20 21 21 20 20 20 20 20 20 20 20 20 20 20 19 19 19 19 19 19 19 19 18 18 18 18 17
24 25 26 26 27 27 28 27 27 27 28 27 27 27 27 23 22 21 21 20 20 20 20 21 21 20 20 20 20 20 20 20 20 20 19 19 19 19 19 19 19 19 18 18 18 18 18 17 17
24 26 26 26 27 27 27 27 26 27 28 27 27 27 27 23 21 21 20 20 19 20 20 20 20 20 20 20 20 20 20 19 19 19 19 19 19 19 19 19 19 18 18 18 18 18 18 17 17
24 26 26 26 26 26 27 26 26 26 27 26 26 27 27 23 21 20 20 19 19 19 19 19 19 19 20 20 20 19 19 19 19 19 19 19 19 19 19 18 18 18 18 18 18 18 17 17 17
22 25 25 26 26 26 26 26 26 25 26 26 26 26 25 22 20 19 19 19 19 19 19 19 19 19 19 19 19 19 19 19 19 19 19 19 18 18 18 18 18 18 18 18 17 17 17 17 17
23 25 26 26 26 26 26 26 26 26 26 26 26 25 23 22 21 20 20 19 19 19 19 19 19 19 19 18 18 18 18 19 18 18 19 18 18 18 17 18 18 18 18 18 17 17 17 17 16
24 25 25 25 24 24 25 25 25 25 26 27 26 26 24 22 21 21 20 20 20 19 19 19 19 19 19 18 18 18 18 18 18 18 18 18 18 18 17 17 18 18 18 17 17 17 16 16 17
24 24 24 24 24 24 24 25 25 25 26 25 25 25 24 23 22 21 21 20 19 19 19 19 19 19 19 18 18 18 18 18 18 18 18 18 18 18 17 17 17 17 17 16 16 16 16 16 16
23 24 23 23 23 24 24 24 25 25 25 24 24 24 24 23 22 22 21 20 19 19 19 18 18 18 19 18 18 18 18 18 18 18 18 18 18 18 17 17 17 17 17 17 16 16 16 16 16
24 23 23 23 24 24 24 25 25 25 24 24 24 24 24 23 22 21 20 20 19 18 18 18 18 18 18 18 18 18 18 18 18 18 18 18 18 17 17 17 17 17 17 17 17 16 16 16 16
22 23 24 25 24 24 24 25 25 24 23 24 24 24 23 23 22 21 20 19 19 18 18 18 18 18 18 18 18 18 18 18 18 18 18 18 18 17 17 17 17 17 17 17 17 16 16 16 16
23 24 24 25 24 24 24 24 25 23 23 24 23 23 22 21 20 19 19 19 19 18 18 18 17 17 18 18 18 17 18 18 18 18 18 18 18 17 17 17 17 17 17 17 17 16 16 16 16
24 24 24 24 24 24 24 24 24 22 22 23 22 22 21 20 19 18 18 18 18 18 17 17 17 17 17 17 17 17 17 17 17 17 17 18 18 17 17 17 17 17 17 16 16 16 16 16 16
23 23 23 24 24 24 24 23 23 22 21 22 21 20 19 18 17 17 17 17 17 17 17 17 17 17 17 17 17 17 17 17 17 17 17 17 17 17 17 17 17 17 16 16 16 16 16 16 16
23 23 23 23 24 23 23 22 22 21 21 20 20 19 18 17 16 16 16 17 17 17 17 17 17 17 17 17 17 17 17 17 17 17 17 17 17 17 17 17 17 17 16 16 16 16 16 16 16
23 23 23 23 23 23 22 22 21 20 19 18 18 17 16 16 16 15 15 16 16 16 16 17 17 17 17 17 17 17 17 17 17 17 17 17 17 17 16 17 16 16 16 16 16 16 16 16 16
23 23 23 23 23 23 22 21 21 20 19 17 16 15 15 14 14 14 14 15 15 16 16 16 16 16 16 16 16 16 16 16 16 16 16 16 16 16 16 16 16 16 16 16 16 16 16 15 15
22 24 23 23 22 22 22 21 21 20 19 18 16 15 14 13 13 14 14 14 14 15 15 15 15 16 16 16 16 16 15 15 15 15 15 15 15 15 15 16 16 16 16 15 15 15 15 15 15
23 24 23 23 22 22 22 22 22 21 19 18 16 14 13 13 13 13 13 13 13 14 14 14 15 15 15 15 15 15 15 15 15 15 15 14 14 15 15 15 15 15 15 15 15 15 15 14 14
23 23 23 23 23 21 22 22 21 21 20 18 15 13 12 12 12 12 12 13 13 13 13 14 14 14 14 15 15 15 15 15 14 14 14 14 14 14 14 14 14 14 14 14 14 14 14 14 13
22 22 21 21 21 21 22 21 20 20 19 17 15 13 11 11 11 11 11 12 12 12 13 13 13 13 13 14 14 14 13 13 13 13 13 13 13 13 13 13 13 13 13 13 13 13 13 12 12
22 22 21 20 21 21 21 21 19 18 17 15 13 12 11 10 10 10 10 11 11 11 12 12 12 12 12 13 13 13 13 13 12 12 12 12 12 12 12 12 12 12 12 12 11 11 11 11 11
22 22 23 22 22 21 21 20 17 16 15 13 12 11 10 9 9 9 9 10 10 10 11 11 11 11 11 12 12 12 12 12 11 11 11 11 11 11 10 10 10 10 10 10 10 10 10 10 10
22 22 22 21 20 19 20 20 19 16 15 13 12 10 9 9 9 9 9 9 9 9 10 10 10 10 10 11 11 11 10 10 10 10 10 10 10 10 9 9 9 9 9 9 9 9 9 9 9
22 22 21 22 22 20 19 19 19 18 16 14 12 10 9 9 8 8 8 8 8 9 9 9 9 9 9 9 9 9 9 9 9 9 9 9 9 8 8 8 8 8 8 8 8 8 8 7 7
22 22 21 20 20 21 20 18 17 17 15 13 11 9 8 8 8 8 8 8 8 8 8 8 8 8 8 8 8 8 8 8 8 8 8 8 8 8 7 7 7 7 7 7 7 7 6 6 6
Wind_Speed
8 7 6 5 7 9 13 8 5 4 2 1 3 4 5 4 4 2 4 10 14 19 22 22 18 17 18 20 21 22 22 22 21 20 19 18 17 15 14 13 12 12 12 11 12 12 13 13 13
4 6 7 7 10 13 11 8 7 3 3 3 3 4 5 2 1 3 6 11 17 21 23 23 21 19 20 20 21 22 22 21 20 20 19 18 17 15 14 13 13 12 12 12 12 12 12 12 12
6 7 7 8 13 14 10 4 4 2 3 4 4 4 4 2 2 3 7 15 18 20 23 23 23 20 20 20 21 21 22 21 20 19 18 17 16 15 14 13 13 12 12 11 11 12 12 12 11
6 7 7 10 15 13 11 7 4 7 5 4 6 4 3 1 2 5 12 17 19 20 23 25 23 22 21 21 21 21 21 21 20 19 18 17 16 15 14 13 13 12 12 11 11 11 11 10 10
8 8 12 14 17 13 10 10 9 10 8 6 7 7 4 3 4 8 14 18 20 21 22 26 24 23 22 22 21 21 21 21 20 19 18 17 16 15 14 13 13 12 12 11 11 10 9 9 9
7 7 11 15 15 13 12 11 11 12 11 8 7 10 5 5 7 10 14 17 19 20 22 25 24 24 23 22 21 21 20 20 20 19 18 17 16 15 14 13 13 12 11 11 10 10 9 8 7
10 10 14 14 12 12 11 10 12 12 12 10 7 8 5 6 7 10 13 15 18 20 21 23 25 24 23 22 22 21 20 20 19 18 18 17 16 15 14 13 12 11 11 10 10 9 8 7 6
8 7 12 12 12 11 6 8 10 11 11 7 6 8 5 6 9 11 13 14 17 19 20 21 23 23 23 22 21 21 20 20 19 18 17 16 15 14 13 13 12 11 10 10 9 8 8 6 5
7 9 11 10 9 7 4 7 8 7 10 9 9 9 3 7 12 13 13 14 16 17 18 20 21 21 22 22 21 21 20 19 18 17 16 16 15 14 13 12 12 11 10 9 9 8 7 7 7
8 11 10 5 6 7 7 8 8 8 12 12 11 9 4 9 13 15 16 18 19 21 20 20 21 21 21 19 20 19 18 18 18 16 17 15 12 11 11 14 11 10 9 9 9 8 8 10 10
7 8 5 5 7 9 10 10 9 12 13 12 10 8 7 11 14 16 17 18 20 21 20 20 19 19 18 15 17 15 16 16 17 16 17 13 11 10 9 11 12 11 11 11 11 11 11 10 7
7 7 7 7 6 8 10 10 11 12 14 10 10 10 8 12 14 16 17 17 17 19 21 20 20 18 17 15 13 13 12 13 13 15 16 13 9 9 9 8 9 9 9 8 8 8 8 7 7
9 8 8 10 11 11 12 13 13 13 11 11 11 10 10 12 13 13 14 14 16 18 19 19 19 18 15 13 11 12 12 13 13 13 15 13 10 9 8 7 7 8 7 8 7 7 6 7 8
5 7 10 11 11 10 12 12 11 10 9 10 10 9 9 9 10 11 12 13 14 15 16 16 17 17 15 13 11 11 12 11 13 13 15 14 11 9 8 8 7 7 7 7 6 6 6 6 6
7 10 11 9 8 7 8 12 9 6 7 8 7 6 5 5 6 8 10 12 13 13 14 15 16 16 15 14 14 11 11 12 11 12 14 14 13 10 8 7 7 7 7 7 6 6 6 6 6
8 9 7 3 3 4 8 9 1 4 5 5 4 3 1 1 1 3 5 7 10 12 13 14 14 15 15 13 12 9 10 11 10 12 12 13 14 11 9 7 7 6 6 6 5 5 5 5 5
6 5 5 3 2 4 8 7 2 5 4 4 2 0 0 2 3 2 1 3 6 9 11 13 13 13 13 12 10 9 9 9 9 10 10 12 13 12 10 7 6 7 6 5 6 5 5 5 4
4 6 5 5 2 5 7 6 3 3 3 2 1 2 2 3 5 5 4 2 3 6 8 11 12 12 12 10 9 7 7 7 7 7 8 10 11 12 10 7 7 7 5 5 5 5 4 4 4
7 8 8 6 3 6 6 4 1 1 1 2 2 3 4 5 6 7 6 5 3 3 5 7 9 10 9 8 8 8 8 8 6 5 6 7 8 9 9 7 6 6 5 5 5 4 4 4 3
8 9 8 5 3 5 5 4 2 1 2 3 3 4 5 5 7 8 7 7 6 3 2 3 6 7 7 8 8 7 7 5 4 3 3 4 5 6 6 7 6 5 5 4 4 4 4 3 2
9 9 9 8 5 8 7 7 6 4 4 5 5 5 6 7 8 8 8 8 6 6 4 2 2 4 5 6 6 5 5 3 3 3 3 3 3 4 4 4 4 4 4 3 3 3 5 4 2
11 7 8 9 10 8 9 9 7 7 5 5 6 6 7 7 8 8 8 8 8 6 4 4 3 4 3 5 6 8 6 5 4 4 4 5 7 7 7 6 5 4 3 3 2 1 1 2 2
12 9 10 11 11 11 10 10 5 8 6 5 6 7 7 8 8 8 8 8 8 7 6 5 5 5 4 4 5 7 6 6 7 8 9 8 8 9 10 9 8 7 6 7 6 5 4 2 1
10 11 11 11 11 13 10 10 6 5 5 6 7 8 8 8 9 9 9 9 9 9 7 6 7 7 7 7 7 7 9 10 11 10 9 7 7 8 11 11 10 9 8 8 8 8 9 7 7
9 11 9 9 10 9 5 7 2 3 4 7 8 9 8 9 9 10 11 11 10 10 9 8 9 9 9 10 10 10 11 12 11 10 9 9 8 8 9 10 10 10 10 10 10 10 10 10 9
8 11 10 9 8 4 4 4 3 6 8 9 10 10 10 10 10 11 11 11 10 11 11 10 11 11 11 12 11 12 12 11 10 11 10 10 9 9 11 12 12 12 12 12 11 10 11 10 10
7 8 8 10 11 8 4 3 5 7 8 9 9 10 10 9 10 11 11 11 11 11 12 12 12 13 13 13 14 14 13 13 14 13 13 11 11 11 13 13 12 12 12 12 11 11 10 9 9
8 7 6 8 7 8 6 6 5 11 10 9 9 10 9 9 9 10 10 10 11 11 12 13 14 14 14 14 14 13 14 14 14 14 14 13 13 12 12 12 12 12 11 11 11 11 10 10 10
6 7 8 8 8 7 6 1 3 9 12 12 11 10 9 9 9 9 9 10 11 12 13 14 14 15 14 14 15 15 15 15 15 14 14 13 13 12 12 12 12 12 11 11 11 11 10 11 10
6 7 8 9 8 8 8 1 5 6 12 13 13 11 10 10 9 9 10 10 11 12 13 13 14 14 14 14 15 15 15 15 15 15 14 13 13 12 12 12 12 12 11 10 11 11 10 10 10
Wind_Direction
247 213 215 233 244 239 246 237 242 253 253 342 303 292 301 307 315 32 96 155 157 153 150 152 148 148 148 147 147 145 145 145 146 145 145 145 144 143 141 140 136 134 131 129 128 126 126 126 127
232 195 219 236 248 243 237 233 235 263 337 312 260 253 263 258 39 102 136 154 159 155 154 158 149 150 148 148 146 145 145 146 146 145 146 146 146 145 144 142 139 137 135 134 134 131 130 131 132
203 214 232 234 238 247 250 217 233 271 301 268 250 256 264 261 161 156 145 156 159 156 157 153 153 152 149 148 147 146 146 147 147 147 149 149 148 147 146 145 143 141 139 137 135 134 134 135 137
195 207 227 240 243 244 260 251 255 278 271 254 259 248 226 201 171 149 148 158 161 160 158 155 157 153 150 150 151 150 149 149 150 151 152 151 151 150 149 149 146 145 143 140 137 136 136 138 139
223 225 227 238 246 249 248 258 264 269 268 263 257 254 234 169 156 148 158 163 163 162 160 158 159 155 153 154 154 154 154 153 153 154 154 154 153 152 152 152 150 149 147 144 142 141 140 139 142
210 223 235 241 246 247 247 251 257 259 262 261 254 253 240 143 166 165 165 168 167 163 160 158 161 159 158 159 158 157 157 156 156 156 156 156 156 155 155 155 154 153 151 148 147 146 144 142 146
230 231 246 255 260 253 251 252 251 256 258 256 249 249 216 165 168 166 167 170 168 166 161 161 166 164 163 162 162 161 160 159 158 159 158 159 159 159 158 158 157 156 155 154 153 153 152 149 150
242 242 247 249 257 260 254 252 249 256 261 267 247 243 233 162 164 165 167 171 171 170 166 165 168 167 168 168 167 165 163 162 161 162 162 162 162 163 163 165 160 160 161 161 160 161 161 161 161
230 240 247 249 257 262 248 253 249 255 259 252 242 253 319 145 164 168 169 173 175 175 172 171 170 170 172 171 170 171 168 166 165 169 167 169 175 172 174 170 158 167 168 169 168 170 173 182 184
219 241 255 275 271 275 268 262 265 254 246 241 238 236 206 174 178 180 179 180 180 180 179 177 175 173 175 172 171 177 178 175 181 178 177 186 181 179 178 145 165 173 175 177 179 182 192 215 207
225 252 268 256 262 274 273 267 259 254 250 246 254 251 214 195 195 194 191 189 186 182 182 180 178 176 176 174 176 181 183 180 189 184 184 188 180 181 181 169 176 183 187 195 180 198 212 217 225
238 248 260 266 272 266 269 270 261 250 257 274 277 272 237 214 208 203 199 195 189 186 186 181 178 178 180 179 182 183 185 183 190 186 189 186 189 188 187 191 187 187 194 200 204 215 213 225 228
237 252 255 259 263 266 269 263 264 262 271 276 272 264 246 226 216 210 204 196 192 191 189 184 182 179 180 181 185 188 191 188 189 186 193 194 194 195 189 194 196 205 201 195 214 223 217 226 228
258 267 267 264 263 257 258 258 250 260 285 274 260 257 247 231 218 207 202 199 197 194 192 187 186 183 183 185 189 195 194 192 192 193 193 200 204 197 196 196 198 211 211 214 217 222 223 232 240
265 265 260 246 251 248 256 246 239 283 293 270 255 251 255 238 212 207 205 203 199 195 191 189 189 186 186 191 195 198 198 194 198 197 194 201 208 201 203 207 202 212 212 210 220 221 227 234 237
241 248 253 192 240 234 249 248 126 340 299 278 267 252 250 69 187 194 202 205 199 195 191 189 188 188 191 196 199 201 202 199 200 198 195 202 209 203 208 213 211 211 216 219 220 227 230 238 246
221 264 284 258 208 249 250 266 8 349 310 286 287 318 123 77 55 61 135 192 197 192 187 187 190 192 193 195 199 208 205 205 201 201 200 203 206 206 210 216 216 215 220 227 233 224 237 244 251
310 300 285 283 257 258 256 264 312 350 334 308 351 45 63 63 52 46 45 75 175 181 187 189 193 196 193 193 194 201 205 208 203 201 203 204 205 208 210 215 217 220 220 223 227 228 234 247 254
298 291 289 288 275 264 259 250 260 14 17 32 32 46 60 58 47 45 44 48 87 138 175 191 193 195 187 185 191 197 204 206 196 196 198 201 205 207 205 213 208 212 215 222 226 227 229 241 253
275 279 280 273 243 261 253 230 177 91 66 55 50 45 47 49 45 41 39 44 47 62 108 165 187 190 191 193 194 196 190 193 183 166 159 186 194 194 192 195 200 199 197 203 214 215 229 235 237
270 278 291 292 272 245 239 226 190 150 109 86 76 65 55 50 44 39 36 35 37 40 48 98 151 168 178 178 177 166 160 158 167 153 123 86 105 129 142 164 174 172 171 171 185 206 215 219 215
276 283 285 277 265 251 232 255 187 174 144 110 90 75 63 53 46 40 35 32 31 35 44 62 90 103 134 156 165 168 173 169 159 128 104 80 74 82 88 90 97 107 112 118 120 105 213 220 219
280 293 279 271 265 267 241 256 205 176 183 139 107 87 70 56 48 44 37 38 37 37 53 63 76 78 85 110 144 152 143 124 113 109 99 84 74 74 79 82 84 85 83 81 77 74 68 65 63
274 269 260 253 252 252 246 250 238 194 196 150 116 93 74 63 53 46 39 39 39 42 53 65 75 74 74 78 86 102 113 116 116 112 106 97 86 76 74 80 81 80 82 82 79 75 74 70 66
246 255 253 243 236 244 227 242 238 118 129 139 122 98 80 67 59 50 42 41 41 47 52 60 70 70 73 79 80 86 95 99 102 103 101 96 86 80 76 78 81 81 82 83 84 81 75 73 73
257 257 263 276 273 255 211 236 106 100 102 109 108 98 83 70 64 58 51 47 47 51 55 61 71 73 73 78 81 83 89 92 91 89 90 87 85 83 83 82 83 84 85 86 85 83 80 77 76
261 250 276 279 277 273 233 159 132 125 119 115 110 97 82 73 69 66 59 53 53 56 58 63 72 75 76 80 83 81 83 89 91 89 87 86 85 86 84 83 83 82 83 86 86 83 81 80 78
263 282 259 257 272 269 243 225 207 174 164 145 127 109 96 85 75 70 67 62 61 64 68 69 72 76 78 81 83 86 85 87 90 90 89 89 89 88 89 88 87 85 84 85 86 87 84 83 78
227 234 252 265 272 278 273 245 33 171 163 151 133 121 111 100 88 79 73 69 70 71 74 75 76 77 79 81 85 87 88 89 89 89 88 88 87 86 86 87 87 85 84 82 82 83 82 80 77
260 264 260 265 271 268 280 73 59 131 145 141 132 124 115 108 100 93 87 82 78 77 77 78 80 81 82 85 87 88 89 89 88 87 87 85 85 85 86 85 85 84 83 81 81 82 80 79 76
Height
1527 1529 1531 1532 1526 1518 1511 1502 1504 1505 1505 1509 1510 1510 1507 1507 1509 1516 1517 1515 1518 1520 1522 1526 1531 1535 1539 1542 1545 1547 1550 1552 1554 1556 1557 1559 1560 1561 1563 1564 1565 1566 1567 1568 1569 1570 1570 1571 1572
1527 1529 1531 1528 1520 1517 1507 1501 1504 1505 1508 1511 1511 1511 1510 1509 1512 1514 1514 1514 1516 1519 1522 1526 1530 1535 1539 1542 1545 1548 1551 1553 1555 1557 1558 1560 1561 1562 1564 1565 1566 1567 1568 1569 1570 1570 1571 1572 1573
1525 1528 1528 1519 1515 1511 1504 1501 1504 1507 1510 1510 1509 1510 1510 1510 1512 1514 1513 1513 1516 1519 1522 1525 1530 1534 1538 1542 1546 1549 1551 1554 1556 1558 1559 1561 1562 1563 1565 1566 1566 1567 1568 1569 1570 1571 1572 1573 1574
1526 1527 1524 1517 1511 1503 1502 1502 1506 1507 1508 1509 1509 1509 1510 1512 1512 1513 1512 1512 1515 1519 1522 1524 1529 1534 1538 1542 1546 1549 1551 1554 1556 1558 1560 1561 1563 1564 1565 1566 1567 1568 1569 1570 1571 1572 1573 1574 1575
1524 1521 1516 1513 1507 1501 1503 1506 1508 1507 1506 1508 1509 1506 1507 1510 1510 1511 1511 1512 1515 1518 1521 1524 1529 1533 1537 1541 1545 1549 1551 1554 1556 1558 1560 1562 1563 1565 1566 1567 1568 1569 1569 1570 1571 1572 1573 1575 1576
1521 1516 1512 1509 1502 1500 1503 1506 1507 1506 1504 1505 1507 1505 1505 1509 1509 1510 1511 1512 1515 1517 1521 1523 1528 1532 1537 1541 1545 1548 1551 1554 1556 1559 1561 1562 1564 1565 1566 1567 1568 1569 1570 1571 1572 1573 1574 1575 1577
1517 1511 1507 1503 1501 1500 1502 1504 1505 1504 1502 1503 1505 1504 1504 1507 1509 1510 1511 1513 1516 1518 1520 1522 1527 1531 1536 1540 1544 1548 1551 1554 1556 1559 1561 1562 1564 1565 1566 1567 1568 1569 1570 1571 1572 1573 1574 1576 1577
1514 1509 1504 1502 1502 1500 1501 1504 1504 1504 1502 1503 1505 1502 1501 1506 1507 1509 1511 1513 1516 1518 1521 1522 1526 1530 1534 1539 1543 1547 1550 1553 1556 1558 1560 1562 1564 1565 1566 1567 1568 1569 1570 1571 1572 1573 1575 1576 1577
1515 1510 1503 1500 1501 1499 1501 1503 1502 1504 1503 1503 1503 1503 1504 1505 1506 1508 1510 1512 1515 1518 1520 1522 1525 1529 1534 1538 1542 1546 1549 1552 1555 1557 1559 1561 1563 1564 1566 1567 1568 1569 1570 1571 1572 1573 1574 1576 1577
1511 1505 1499 1500 1501 1500 1500 1502 1501 1501 1499 1499 1500 1501 1503 1503 1505 1506 1507 1509 1512 1515 1518 1521 1524 1528 1533 1537 1540 1544 1548 1551 1554 1556 1558 1560 1562 1564 1566 1566 1567 1568 1569 1570 1572 1573 1574 1575 1577
1507 1502 1501 1503 1504 1503 1501 1500 1500 1500 1496 1495 1496 1498 1500 1502 1503 1504 1506 1507 1510 1512 1516 1520 1523 1527 1531 1535 1539 1543 1546 1549 1552 1554 1556 1559 1561 1562 1564 1565 1566 1567 1569 1570 1571 1572 1574 1576 1578
1506 1504 1504 1503 1503 1503 1501 1499 1498 1496 1495 1495 1496 1496 1498 1499 1500 1502 1504 1507 1509 1512 1514 1518 1521 1524 1529 1533 1537 1540 1544 1546 1549 1551 1554 1556 1558 1560 1562 1563 1566 1567 1568 1570 1571 1573 1574 1575 1576
1505 1502 1503 1502 1501 1500 1499 1497 1496 1494 1494 1494 1494 1494 1495 1496 1498 1500 1503 1506 1508 1511 1513 1516 1519 1521 1525 1529 1533 1537 1541 1544 1547 1549 1551 1554 1556 1558 1560 1562 1563 1566 1568 1568 1569 1571 1572 1573 1574
1501 1501 1500 1498 1497 1497 1496 1492 1492 1491 1492 1491 1491 1491 1492 1494 1496 1498 1501 1503 1506 1508 1511 1514 1516 1519 1522 1526 1530 1533 1538 1540 1544 1546 1548 1551 1554 1556 1557 1559 1561 1563 1565 1567 1568 1569 1570 1571 1572
1502 1499 1494 1492 1492 1491 1492 1489 1487 1490 1490 1489 1489 1489 1490 1492 1494 1496 1499 1501 1504 1506 1508 1511 1513 1516 1519 1523 1527 1531 1534 1537 1540 1543 1545 1548 1551 1553 1555 1557 1558 1561 1562 1564 1565 1566 1567 1568 1569
1496 1493 1489 1486 1489 1489 1492 1485 1485 1489 1489 1487 1488 1488 1490 1491 1493 1495 1497 1500 1502 1504 1507 1509 1511 1514 1517 1520 1524 1528 1531 1534 1537 1540 1542 1544 1548 1550 1552 1554 1556 1558 1560 1561 1562 1564 1565 1566 1567
1489 1489 1488 1485 1486 1487 1486 1483 1485 1488 1488 1487 1487 1488 1490 1491 1492 1494 1496 1498 1500 1502 1504 1506 1509 1511 1514 1518 1521 1524 1527 1530 1533 1536 1539 1541 1544 1547 1549 1551 1553 1555 1557 1558 1560 1561 1562 1563 1564
1491 1488 1488 1486 1484 1485 1484 1484 1486 1488 1488 1487 1488 1489 1490 1491 1493 1493 1494 1496 1498 1500 1502 1504 1507 1509 1512 1516 1519 1521 1523 1527 1530 1532 1535 1537 1540 1543 1545 1548 1550 1552 1553 1555 1556 1558 1559 1559 1560
1490 1490 1488 1484 1482 1484 1483 1484 1487 1488 1489 1489 1489 1490 1491 1492 1493 1493 1493 1494 1496 1497 1499 1502 1504 1506 1509 1511 1514 1517 1520 1523 1526 1528 1531 1533 1536 1538 1541 1544 1546 1548 1550 1551 1553 1554 1555 1556 1557
1489 1488 1484 1480 1481 1483 1483 1484 1486 1489 1490 1492 1492 1492 1492 1493 1493 1493 1493 1493 1494 1496 1497 1499 1502 1504 1507 1509 1511 1514 1517 1520 1522 1524 1527 1529 1532 1535 1537 1540 1542 1544 1546 1548 1549 1550 1552 1553 1553
1485 1484 1482 1482 1480 1479 1482 1484 1484 1488 1491 1493 1493 1493 1494 1494 1494 1494 1494 1493 1493 1493 1495 1497 1499 1502 1504 1506 1509 1512 1514 1516 1518 1520 1523 1526 1528 1530 1533 1536 1539 1541 1542 1544 1545 1547 1548 1549 1550
1483 1477 1479 1480 1481 1477 1479 1482 1479 1482 1487 1491 1494 1495 1495 1495 1495 1494 1494 1493 1493 1493 1495 1496 1497 1499 1502 1504 1506 1508 1510 1512 1515 1517 1520 1523 1525 1527 1529 1532 1535 1537 1539 1540 1542 1543 1544 1545 1546
1477 1475 1477 1476 1476 1477 1473 1478 1475 1478 1484 1490 1494 1496 1497 1497 1496 1496 1495 1494 1494 1494 1494 1495 1497 1498 1500 1502 1504 1506 1508 1510 1512 1515 1518 1520 1522 1524 1526 1529 1531 1534 1535 1537 1538 1540 1541 1542 1543
1475 1475 1474 1473 1471 1481 1471 1476 1477 1475 1480 1487 1494 1497 1498 1498 1498 1497 1496 1495 1495 1495 1495 1495 1496 1497 1499 1501 1502 1504 1506 1507 1510 1513 1515 1518 1520 1522 1524 1527 1529 1531 1533 1534 1536 1537 1538 1539 1540
1475 1478 1481 1480 1478 1475 1465 1472 1477 1477 1481 1487 1494 1498 1500 1500 1499 1498 1497 1496 1496 1495 1495 1496 1497 1498 1499 1501 1502 1504 1506 1508 1510 1512 1514 1516 1518 1520 1523 1525 1527 1529 1531 1533 1534 1535 1536 1537 1538
1471 1473 1481 1485 1479 1471 1469 1473 1480 1483 1487 1492 1496 1499 1501 1502 1501 1500 1499 1498 1498 1497 1497 1497 1498 1499 1500 1502 1503 1505 1507 1510 1511 1513 1515 1517 1518 1520 1522 1524 1526 1529 1531 1533 1534 1535 1536 1537 1537
1470 1468 1463 1470 1468 1472 1470 1475 1483 1487 1491 1495 1498 1500 1502 1503 1504 1503 1502 1501 1500 1500 1499 1500 1500 1501 1502 1503 1504 1506 1509 1510 1512 1514 1517 1519 1520 1521 1523 1525 1527 1529 1531 1533 1534 1535 1536 1537 1538
1469 1465 1468 1471 1479 1480 1473 1472 1475 1484 1490 1495 1499 1502 1504 1505 1506 1506 1505 1504 1504 1503 1502 1503 1503 1504 1505 1506 1507 1508 1511 1513 1515 1516 1518 1520 1522 1524 1526 1528 1530 1532 1533 1534 1535 1536 1538 1538 1538
1469 1469 1468 1464 1464 1474 1480 1478 1471 1476 1485 1493 1499 1503 1505 1507 1508 1508 1508 1507 1507 1506 1506 1506 1506 1507 1508 1509 1510 1512 1514 1516 1518 1519 1521 1523 1525 1527 1529 1531 1533 1534 1535 1536 1537 1538 1539 1540 1540
1466 1465 1465 1473 1470 1466 1469 1482 1477 1479 1486 1493 1500 1504 1507 1508 1510 1510 1510 1510 1510 1510 1510 1510 1511 1512 1513 1514 1515 1516 1518 1519 1521 1522 1524 1526 1528 1531 1532 1534 1535 1537 1538 1539 1540 1540 1541 1542 1542